Regional Weather Roundup
Issued by NWS Boston, MA

Home | Current Version | Previous Version | Text Only | Print | Product List | Glossary On
Versions: 1 2 3 4 5 6 7 8 9 10 11 12 13 14 15 16 17 18 19 20 21 22 23 24 25 26 27
000
ASUS41 KBOX 242010
RWRBOX

REGIONAL WEATHER ROUNDUP
NATIONAL WEATHER SERVICE TAUNTON MA
400 PM EDT FRI JUN 24 2016

NOTE:  "FAIR" INDICATES FEW OR NO CLOUDS BELOW 12,000 FEET WITH NO
SIGNIFICANT WEATHER AND/OR OBSTRUCTIONS TO VISIBILITY.  THE FOLLOWING
OBSERVATION LOCATIONS DO NOT REPORT PRESENT WEATHER...PROVINCETOWN...
SMITHFIELD...BLOCK ISLAND...KEENE...AND OXFORD.

MAZALL-242100-
EASTERN MASSACHUSETTS

CITY           SKY/WX    TMP DP  RH WIND       PRES   REMARKS
BOSTON         MOSUNNY   71  47  42 E16       30.11S
BEVERLY        SUNNY     71  50  47 SE13      30.10S
LAWRENCE       SUNNY     77  48  35 SE8       30.11R
BEDFORD        SUNNY     79  44  28 SE10      30.07F
BLUE HILL        N/A     77  49  37 E7        30.10S
NORWOOD        SUNNY     79  50  36 SE8       30.08S
MARSHFIELD     SUNNY     72  52  49 VRB7      30.11S
PLYMOUTH       SUNNY     75  55  49 NE12      30.11S
TAUNTON        MOSUNNY   79  47  32 E9        30.08S
NEW BEDFORD    SUNNY     77  55  46 SE15      30.08S
$$

MAZALL-242100-
CAPE COD AND THE ISLANDS

CITY           SKY/WX    TMP DP  RH WIND       PRES   REMARKS
FALMOUTH       SUNNY     75  52  43 E10       30.10S
HYANNIS        SUNNY     74  50  42 SE13      30.09R
CHATHAM        SUNNY     71  52  50 NE9       30.12S
PROVINCETOWN   SUNNY     75  49  39 E10       30.12S
NANTUCKET      SUNNY     72  54  53 E13       30.10R
MARTHAS VNYRD  SUNNY     75  53  46 E13       30.10S
$$

MAZALL-242100-
CENTRAL AND WESTERN MASSACHUSETTS

CITY           SKY/WX    TMP DP  RH WIND       PRES   REMARKS
WORCESTER      SUNNY     78  44  29 SE8       30.10S
FITCHBURG      PTSUNNY   84  45  25 VRB7      30.08S
ORANGE         SUNNY     81  41  24 NE5       30.07F
SPRINGFIELD    MOSUNNY   83  46  27 VRB5      30.05S
WESTFIELD      SUNNY     84  44  24 VRB3      30.06S
NORTH ADAMS    SUNNY     80  46  30 MISG      30.07S
PITTSFIELD     SUNNY     78  45  30 VRB5      30.08S
$$

RIZALL-242100-
RHODE ISLAND

CITY           SKY/WX    TMP DP  RH WIND       PRES   REMARKS
PROVIDENCE     MOSUNNY   80  52  37 S20       30.08S
NEWPORT        SUNNY     75  58  55 SE12      30.09S
BLOCK ISLAND   SUNNY     72  56  57 SE15G22   30.10R
SMITHFIELD     SUNNY     81  50  34 E5        30.08S
WESTERLY       SUNNY     76  54  46 SE14      30.10R
$$

CTZALL-242100-
CONNECTICUT

CITY           SKY/WX    TMP DP  RH WIND       PRES   REMARKS
BRADLEY INTL   MOSUNNY   84  46  26 VRB5      30.05F
HARTFORD       SUNNY     84  49  29 S5        30.05S
BRIDGEPORT     PTSUNNY   79  56  45 SE12      30.07R
DANBURY        MOSUNNY   79  51  37 S9        30.08S
GROTON         SUNNY     73  62  68 SE15      30.08R
NEW HAVEN      MOSUNNY   79  56  45 E9        30.08R
CHESTER        FAIR      77  52  41 SE8G15    30.09S
MERIDEN        MOSUNNY   84  50  30 S14       30.06R
WILLIMANTIC    MOSUNNY   85  47  26 VRB3      30.06S
OXFORD         MOSUNNY   81  50  34 S10G20    30.11R
$$

MEZ002-015-021-024-NHZ003-005-008-011-012-014-VTZ005-008-242100-
NORTHERN NEW ENGLAND

CITY           SKY/WX    TMP DP  RH WIND       PRES   REMARKS
PORTLAND ME    MOSUNNY   71  42  35 S9G20     30.10R
BANGOR ME      MOSUNNY   79  42  26 W10       30.06S
CONCORD NH     SUNNY     82  42  24 MISG      30.07S
MANCHESTER NH  MOSUNNY   81  43  26 MISG      30.05F
NASHUA NH      MOSUNNY   82  48  30 NW9         N/A
PORTSMOUTH NH  MOSUNNY   73  43  34 SE14      30.09R
JAFFREY NH     SUNNY     80  43  26 SW7       30.10S
KEENE NH       SUNNY     79  43  27 NE7       30.08F
BURLINGTON VT  FAIR      78  44  29 CALM      30.09S
MT. WASHINGTON MOSUNNY   50  39  66 SW14G24     N/A
$$

NYZ052-076-242100-
EASTERN NEW YORK

CITY           SKY/WX    TMP DP  RH WIND       PRES   REMARKS
ALBANY         MOSUNNY   82  47  29 NW9       30.07F
NEW YORK CITY  MOSUNNY   84  52  33 SE14      30.05S
$$

ANZALL-242100-
MARINE OBSERVATIONS

STATION/POSITION TIME  TEMP    WIND        PRES    VSBY  WAVE
                       AIR SEA DIR/SP/G                  HT/PER
                 (UTC) (F)     (DEG/KT/KT) (MB)    (MI)  (FT/S)
BOSTON BUOY      1950   65 65  120/  8/ 10 1019.4S         1/ 8
BUZZARDS BAY     1900   67     130/ 13/ 13 1019.4R
NANTUCKET SOUND  1950   64 68   60/ 12/ 12 1019.1F         1/ 3
MASS BAY-STELLWA 1904   62 64                N/A    1 7/8  1/ 7
ISLE OF SHOALS   1900   63     150/ 11/ 12 1019.2R
S OF BLOCK IS    1925      65                N/A           3/ 8
$$

......................KEY.........................
  SKY/WX - SKY CONDITION/PRESENT WEATHER
  TMP    - TEMPERATURE IN FAHRENHEIT
  DWPT   - DEWPOINT IN FAHRENHEIT
  RH     - RELATIVE HUMIDITY IN PERCENT
  WIND   - DIRECTION AND SPEED IN MPH
  PRES   - MEAN SEA LEVEL PRESSURE IN INCHES OF HG
  WCI    - WIND CHILL INDEX
  VSB    - VISIBILITY IN MILES
  HX     - HEAT INDEX
  TC     - TEMPERATURE IN CELSIUS
  VRB    - VARIABLE WIND DIRECTION
  N/A    - NOT AVAILABLE




USA.gov is the U.S. government's official web portal to all federal, state and local government web resources and services.